Regional Weather Roundup
Issued by NWS Binghamton, NY

Home | Current Version | Previous Version | Text Only | Print | Product List | Glossary On
Versions: 1 2 3 4 5 6 7 8 9 10 11 12 13 14 15 16 17 18 19 20 21 22 23 24 25 26 27 28 29 30 31 32 33 34 35 36 37 38 39 40 41 42 43 44 45 46 47 48 49 50
000
ASUS41 KBGM 272310
RWRBGM

REGIONAL WEATHER ROUNDUP
NATIONAL WEATHER SERVICE BINGHAMTON NY
700 PM EDT THU APR 27 2017

Note: "fair" indicates few or no clouds below 12,000 feet with no
significant weather and/or obstructions to visibility.

* = Station(s) that does not report precipitation, such as rain,
snow, etc, also no thunder or fog.

NYZ009-015>018-022>025-036-037-044>046-055>057-062-280000
...Central New York...

CITY           SKY/WX    TMP DP  RH WIND       PRES   REMARKS
Binghamton     CLOUDY    72  57  59 S14G25    29.74S
Cortland       FAIR      73  55  53 S13G18    29.71S
Dansville      CLOUDY    74  57  55 SE14G24   29.61S
Elmira         PTSUNNY   76  57  51 SW14      29.69R
Seneca Falls   CLEAR     73  59  60 S9        29.63S
Ithaca         CLOUDY    75  57  53 S14G23    29.70R
Hamilton       CLEAR     73  55  53 S10G17    29.71F
Monticello     PTCLDY    64  59  82 SE13      29.86S
Norwich        CLEAR     73  57  56 S13       29.74S
Penn Yan       CLOUDY    75  55  49 S14G22    29.67S
Rome           PTCLDY    74  60  61 SE16G24   29.70S
Sidney         CLEAR     73  61  64 S7        29.75S
Syracuse       CLOUDY    77  60  55 SE13      29.62F
$$

PAZ038>040-043-044-047-048-072-280000
...Northeast Pennsylvania...

CITY           SKY/WX    TMP DP  RH WIND       PRES   REMARKS
Hazleton       MOCLDY    73  59  60 SE9G24    29.83S
Scranton       MOCLDY    76  61  59 MISG      29.76F
$$
&&
KEY
WCI = Wind Chill Index
VSB = Visibility
HX  = Heat Index
$$



USA.gov is the U.S. government's official web portal to all federal, state and local government web resources and services.